User: anonymous   Login
Location: Unspecified
(0.0000°N, 0.0000°E)
Time: 01:02:34
(UTC+00:00)
Language:

BEIDOU-3 M26 - Orbit

View from above orbital plane
View from above orbital plane
View from above satellite
View from above satellite

Ground track
Ground track

The orbit is defined by the following mean orbital elements,

1 58655U          26145.00752057 +.00000000 +00000-0 +00000-0 0 00006
2 58655  55.7353  63.0713 0004009 313.6420  46.3181  1.86229749    02
Epoch (UTC): 25 May 2026 00:10:49
Eccentricity: 0.0004009
inclination: 55.7353°
perigee height: 21517 km
apogee height: 21539 km
right ascension of ascending node: 63.0713°
argument of perigee: 313.6420°
revolutions per day: 1.86229749
mean anomaly at epoch: 46.3181°

The dashed part of the orbit path shows where the satellite is in the earth's shadow,  

DLR